Location: Banff
(51.1667°N, 115.5667°W)
Time: 12:52:34
(UTC+00:00)

Tiros 1 - Pass Details

Date: 06 August 2021
Orbit: 630 x 663 km, 48.4° (Epoch: 27 September)

Event Time Altitude Azimuth Distance (km) Brightness Sun altitude
Rises 05:36:53 0° 279° (W) 2,975 11.2 -16.4°
Reaches altitude 10° 05:39:37 10° 265° (W) 2,055 10.1 -16.6°
Maximum altitude 05:43:20 23° 214° (SSW) 1,366 8.6 -16.9°
Enters shadow 05:44:22 21° 194° (SSW) 1,428 8.5 -17.0°
